Temperature
19 20 20 21 20 19 19 18 18 19 18 18 17 16 16 16 17 17 17 17 17 17 18 18 18 18 18 17 17 17 17 17 17 16 16 16 16 16 16 16 16 16 16 16
19 20 20 20 20 20 20 19 19 18 18 17 16 16 16 16 16 16 16 16 17 17 17 17 17 17 17 17 17 17 17 17 17 16 16 16 16 16 16 16 16 16 16 16
18 19 20 19 19 19 19 18 18 18 17 16 15 15 15 15 16 16 16 16 17 17 17 17 17 17 17 17 17 16 16 16 16 16 16 16 16 16 16 16 16 16 15 15
16 19 19 18 18 18 18 17 17 16 16 15 15 15 15 15 16 16 16 16 16 16 16 16 17 16 16 16 16 16 16 16 16 16 16 16 16 16 16 15 15 15 15 15
15 17 18 18 18 17 17 17 16 16 15 15 15 15 15 15 15 15 15 16 16 16 16 16 16 16 16 16 16 16 16 16 16 16 16 15 15 15 15 15 15 15 15 15
15 17 17 17 17 17 17 16 16 15 14 14 15 15 14 15 15 15 15 15 15 15 16 16 16 16 16 16 16 16 15 15 15 15 15 15 15 15 15 14 14 14 14 14
15 16 16 16 16 17 17 17 15 15 15 14 14 14 14 14 14 14 15 15 15 15 15 15 16 15 15 15 15 15 15 15 15 15 14 14 14 14 14 14 14 14 14 14
13 15 16 15 16 16 15 15 15 15 14 14 14 14 13 14 14 14 14 14 15 15 15 15 15 15 15 15 14 14 14 14 14 14 14 14 14 14 14 14 13 13 13 13
13 14 13 13 14 14 15 14 14 14 14 14 14 13 13 13 13 13 14 14 14 14 14 14 14 14 14 14 14 14 14 14 14 14 13 13 13 13 13 13 13 13 13 12
13 13 13 13 14 14 15 15 15 15 14 14 13 13 13 13 13 13 13 13 13 14 14 14 14 14 14 14 14 14 14 13 13 13 13 13 13 12 12 12 12 12 12 11
13 12 12 13 13 14 14 14 14 14 14 14 13 12 12 12 12 13 13 13 13 13 13 13 13 13 13 13 13 13 13 13 13 13 12 12 12 12 12 11 11 11 11 11
13 13 12 12 13 13 14 14 14 13 13 13 13 12 12 12 12 12 12 12 12 12 12 12 13 13 13 13 13 13 13 12 12 12 12 12 12 11 11 11 11 10 10 10
13 13 13 13 13 13 13 13 13 13 13 12 12 12 12 12 11 12 12 12 12 12 12 12 12 12 12 12 12 12 12 12 12 12 11 11 11 11 11 10 10 10 10 9
13 13 12 12 12 12 12 12 12 12 12 12 11 11 11 11 11 11 11 11 11 12 12 12 12 12 12 12 12 12 12 12 12 11 11 11 11 10 10 10 9 9 9 9
13 13 13 12 12 11 12 12 11 11 11 11 11 11 11 11 10 10 11 11 11 11 11 11 11 11 11 12 12 11 11 11 11 11 11 10 10 10 10 9 9 9 8 8
12 12 12 11 11 11 11 11 11 10 10 10 10 10 10 10 10 10 10 10 11 11 10 10 10 10 11 11 11 11 11 11 11 10 10 10 9 9 9 9 8 8 8 7
12 11 11 11 10 10 10 10 11 10 10 10 10 10 10 10 10 10 10 10 10 10 10 10 10 10 10 10 10 10 10 10 10 10 9 9 9 9 8 8 8 7 7 7
12 12 12 11 11 10 10 10 10 10 10 10 10 10 10 10 10 9 9 10 10 10 9 9 9 10 10 10 10 10 9 9 9 9 9 8 8 8 8 7 7 7 6 6
12 12 11 11 11 10 10 10 10 10 10 10 10 10 10 9 9 9 9 9 9 9 9 9 9 9 9 9 9 9 9 9 8 8 8 7 7 7 7 7 6 6 6 6
11 11 11 11 11 11 10 10 10 10 10 10 10 10 9 9 9 9 9 9 9 8 8 8 8 8 8 8 8 8 8 8 8 7 7 7 7 6 6 6 5 5 5 5
11 11 11 11 10 11 11 11 10 10 10 10 10 9 9 9 8 8 9 8 8 8 8 8 8 8 8 7 7 7 7 7 7 7 6 6 6 5 5 5 5 4 4 4
11 11 10 10 10 10 10 10 10 10 10 9 9 9 9 8 8 8 8 7 7 7 7 7 7 7 7 7 7 7 6 6 6 6 5 5 5 5 4 4 4 4 4 4
10 10 10 10 10 10 10 10 10 10 9 9 9 8 8 8 8 8 7 7 7 7 7 7 7 6 6 6 6 6 6 5 5 5 5 5 4 4 4 4 3 3 3 3
10 10 10 10 10 10 9 9 9 9 9 9 8 8 8 8 7 7 7 6 6 6 6 6 6 6 6 6 5 5 5 5 5 4 4 4 4 4 3 3 3 3 3 3
10 10 10 10 9 9 9 9 9 9 8 8 8 7 7 7 7 6 6 6 6 6 6 5 5 5 5 5 5 5 4 4 4 4 4 4 3 3 3 3 3 3 3 3
9 9 9 9 9 9 9 9 8 8 8 8 7 7 7 6 6 6 6 6 5 5 5 5 5 5 5 5 4 4 4 4 4 4 3 3 3 3 3 3 3 3 2 2
9 9 9 9 8 8 8 8 8 8 7 7 7 6 6 6 6 6 6 5 5 5 5 4 4 4 4 4 4 4 4 4 3 3 3 3 3 3 3 3 2 2 2 2
Wind_Speed
3 3 4 4 5 6 6 8 8 8 7 6 4 2 1 2 4 4 4 3 3 3 2 2 3 3 3 4 4 5 5 5 5 4 4 4 3 4 4 4 5 4 5 4
1 1 3 3 2 5 4 4 5 4 4 2 2 3 3 4 4 4 3 3 2 2 2 2 3 3 3 4 4 5 5 5 4 4 4 3 3 3 3 3 4 4 4 3
2 0 4 1 3 4 3 2 5 6 5 4 3 4 3 3 3 2 2 2 2 2 1 1 2 3 3 4 4 5 5 4 4 4 4 4 4 4 4 3 3 3 3 3
4 4 4 6 2 3 4 1 1 2 4 5 5 5 4 3 3 2 2 2 2 2 1 1 2 3 3 4 5 5 4 4 5 5 5 5 5 5 4 4 4 4 3 3
4 4 2 3 1 3 4 0 1 5 6 6 6 5 3 4 4 2 1 1 1 2 2 2 3 4 5 5 5 5 4 4 4 6 6 6 5 5 4 5 5 5 5 5
5 5 7 6 2 2 4 1 3 6 7 6 5 3 1 2 4 4 3 2 3 3 4 4 3 5 7 6 5 4 4 5 5 6 6 6 6 5 5 6 5 6 6 6
4 4 5 3 1 3 4 6 4 6 6 5 3 3 3 3 4 3 3 4 4 5 5 4 4 6 7 7 5 4 6 6 6 6 7 6 6 6 6 7 7 7 8 7
4 4 6 1 2 5 4 1 4 4 4 4 5 5 5 5 4 4 4 4 5 5 5 4 5 7 8 7 5 6 8 8 8 7 7 7 8 7 7 7 7 7 7 7
5 5 2 1 1 0 1 3 2 4 5 7 6 5 5 5 4 4 5 5 5 6 7 6 6 7 8 5 6 8 9 9 9 9 8 8 8 8 7 6 6 6 6 6
1 1 0 1 1 1 1 2 3 5 7 6 6 7 7 6 5 5 5 6 6 8 8 7 7 8 7 7 8 10 11 9 9 10 10 9 8 7 7 6 6 6 6 6
1 1 1 2 2 2 4 5 7 6 6 7 8 9 8 7 6 6 6 6 7 8 8 8 8 8 7 7 9 11 11 10 10 9 10 10 10 9 8 7 5 6 5 5
5 5 4 2 1 3 5 6 7 8 7 6 8 10 10 9 7 7 8 8 8 9 9 8 8 9 7 7 9 11 10 9 8 8 8 9 10 11 16 13 14 13 11 9
3 3 4 4 3 4 5 6 7 8 9 10 9 11 12 10 8 9 9 9 9 9 9 8 9 9 7 7 9 10 10 9 7 8 8 8 8 9 9 11 15 16 15 14
5 6 5 4 5 6 9 10 11 11 11 11 11 12 12 11 10 10 10 8 9 10 10 9 10 8 6 7 9 10 9 9 8 7 7 7 7 7 7 8 8 8 10 13
3 5 7 8 9 9 10 12 14 13 13 13 12 12 12 12 11 10 9 9 10 11 10 10 10 8 6 8 10 9 8 7 7 7 7 7 7 7 8 8 8 7 6 7
7 9 11 12 12 11 11 12 13 13 12 13 12 12 12 12 12 11 10 9 11 10 9 9 9 6 6 9 10 9 8 11 10 8 8 7 7 7 7 7 7 6 6 4
11 10 11 12 12 11 10 11 12 12 12 13 12 12 13 13 13 11 10 10 10 9 8 8 7 6 7 9 9 8 8 9 11 9 8 7 7 7 7 7 7 6 5 5
7 9 11 13 13 12 11 11 11 12 12 12 13 12 12 12 11 10 8 9 10 11 10 7 7 8 9 9 8 7 8 7 7 7 7 7 7 7 7 7 7 7 5 6
11 12 12 12 11 11 11 11 11 11 11 12 13 12 11 11 10 9 9 10 10 9 6 6 9 10 9 9 9 7 8 9 8 7 7 8 8 7 6 6 6 6 5 5
11 12 13 12 11 11 11 11 12 11 11 12 13 13 12 10 9 10 11 10 6 4 3 6 8 8 8 8 10 8 8 8 8 7 7 6 6 6 6 6 5 5 5 4
12 13 13 12 11 11 11 12 12 12 11 12 13 12 11 9 8 8 9 8 5 5 6 9 7 6 6 7 9 7 8 8 7 7 6 6 6 6 5 5 4 4 4 4
10 12 12 12 12 11 10 10 12 13 12 12 12 12 11 10 9 9 8 5 3 6 6 6 6 7 8 8 7 7 7 7 6 6 6 5 5 5 4 4 4 3 3 3
10 11 11 12 12 11 11 10 11 12 12 12 11 11 10 8 6 7 6 3 3 7 6 6 8 11 11 7 6 6 6 6 6 5 5 4 4 4 4 3 3 2 2 2
10 10 10 11 12 13 12 10 10 10 11 10 9 9 9 8 6 5 5 6 8 9 6 7 10 11 9 6 5 5 5 5 5 4 4 4 4 3 3 3 2 2 2 2
11 11 12 13 12 10 10 11 12 11 11 9 8 8 6 5 6 5 6 7 8 9 7 8 10 10 7 5 5 5 4 4 4 4 4 3 3 3 2 2 2 1 1 1
10 9 9 9 9 9 8 9 8 8 8 8 6 6 6 6 7 6 6 7 8 8 6 5 5 6 5 5 5 4 4 4 4 3 3 3 2 2 2 2 2 1 1 0
10 9 9 9 8 8 8 8 8 7 7 8 7 5 6 6 6 6 7 6 6 5 5 4 4 4 4 4 4 4 3 3 3 2 2 2 2 2 2 2 1 1 1 1
Wind_Direction
196 201 165 158 161 162 163 174 177 212 210 234 214 196 154 109 102 99 92 94 114 125 141 149 152 156 159 161 162 166 169 178 189 186 187 181 175 174 169 166 174 172 172 177
60 90 128 112 150 163 166 167 180 174 223 228 129 105 96 97 98 94 82 75 90 110 133 172 174 170 164 160 161 161 168 179 173 161 159 161 169 162 151 153 154 147 155 163
169 350 79 216 223 176 169 186 172 194 211 153 133 117 108 94 84 84 74 69 79 97 121 175 178 164 161 157 149 155 162 161 152 146 144 146 144 132 138 141 129 133 147 152
124 116 188 241 290 151 127 75 161 153 142 145 134 108 85 84 83 65 44 62 72 91 92 79 97 118 125 127 134 143 147 151 146 140 135 129 124 123 122 118 116 114 110 109
122 150 239 276 202 147 137 277 168 144 132 122 122 92 56 59 63 62 33 46 58 62 89 90 93 112 113 113 121 126 132 133 131 130 127 121 119 116 110 107 102 94 89 88
126 147 211 230 204 151 110 244 184 149 147 146 126 126 226 72 61 51 49 54 64 64 78 82 80 101 105 105 109 116 120 117 116 118 119 117 114 106 98 100 100 95 82 76
140 172 243 243 239 128 164 227 177 161 159 156 154 167 138 95 67 60 63 67 70 74 78 80 88 102 103 97 94 99 104 103 101 102 107 108 103 97 99 98 93 89 82 68
142 166 235 291 138 172 204 142 136 146 144 129 122 113 109 96 79 71 71 75 78 80 74 72 87 103 101 95 90 89 91 90 89 89 97 99 96 90 90 97 93 86 85 73
180 198 242 331 182 303 151 139 141 143 139 136 132 126 116 104 90 79 76 80 80 88 83 72 75 94 101 89 89 93 89 87 87 86 82 84 89 91 87 86 92 90 89 82
136 265 338 37 61 44 94 131 131 137 139 139 135 130 119 109 96 84 77 83 86 90 89 79 75 82 89 92 94 95 91 87 86 88 83 75 73 76 83 84 91 92 91 88
161 198 79 28 44 63 83 98 104 106 115 130 130 126 120 113 102 90 80 75 83 91 91 82 79 81 85 92 98 96 92 89 86 86 89 81 72 63 72 63 77 95 93 92
206 197 166 176 109 100 110 113 117 114 105 112 123 124 116 109 100 94 88 82 83 81 83 80 79 77 75 86 97 101 98 94 93 93 92 93 92 77 59 66 65 68 76 87
177 132 123 122 101 99 109 107 107 111 118 116 111 116 112 104 97 93 87 84 85 84 81 80 80 74 68 78 92 98 103 103 100 99 100 98 97 98 91 69 62 60 62 70
134 122 119 118 110 102 107 104 99 96 100 106 109 107 106 100 95 91 86 84 85 83 78 76 75 66 60 81 91 94 97 98 100 99 100 101 100 100 100 99 87 66 54 61
110 115 128 120 110 105 107 108 103 98 97 98 102 104 103 100 95 89 85 86 85 78 74 74 72 58 50 77 89 93 95 96 94 93 94 96 97 97 96 95 93 87 77 61
112 110 118 119 118 115 114 113 111 109 106 104 102 101 100 98 92 84 76 79 83 78 72 73 70 57 63 82 88 87 87 94 95 95 94 93 93 96 95 94 90 84 78 69
130 133 133 129 126 121 119 118 118 117 112 109 109 106 102 98 90 84 77 74 79 76 70 71 69 65 73 82 89 92 90 89 88 90 91 93 95 96 97 96 93 85 71 59
129 132 135 135 132 126 121 117 115 114 115 115 112 107 104 103 101 97 91 86 80 68 55 56 68 74 73 77 86 92 95 92 89 91 91 90 92 92 94 94 92 86 76 67
119 119 121 124 125 125 124 121 119 117 116 116 113 108 105 102 102 99 92 84 80 72 46 52 75 78 77 79 88 89 94 95 92 90 93 92 90 89 90 91 87 83 79 73
118 118 117 116 116 119 121 120 118 115 116 117 112 107 102 97 97 95 87 75 61 65 69 77 79 78 78 84 89 91 95 96 96 94 93 92 93 91 90 90 88 84 79 74
122 120 120 119 117 116 120 121 119 116 116 117 116 114 109 101 94 91 89 79 39 52 74 78 79 79 80 88 88 92 94 96 97 98 97 97 96 95 93 90 87 84 79 72
121 123 122 120 117 113 113 114 117 117 115 114 113 113 110 104 96 84 74 82 75 80 80 77 79 86 88 88 90 93 95 97 97 97 98 100 102 101 97 93 90 84 75 67
116 117 118 119 118 116 109 110 115 118 119 120 120 119 115 110 105 106 95 69 86 88 85 84 94 94 89 85 88 92 95 97 99 100 102 103 104 105 104 100 94 89 79 64
112 112 113 113 112 111 109 107 106 107 108 108 111 116 117 110 88 79 102 105 98 92 86 91 95 94 90 88 91 92 93 96 98 101 101 99 100 101 102 103 97 84 76 66
114 112 112 113 112 113 113 111 107 105 105 103 99 97 99 108 115 113 106 106 104 97 88 85 88 89 87 90 93 95 95 98 105 110 109 109 110 112 113 111 105 94 77 55
111 112 112 113 116 118 118 115 114 115 115 110 99 94 95 96 103 105 103 104 100 96 91 87 86 85 87 89 91 95 97 100 101 103 109 113 116 116 115 114 110 109 106 45
104 106 107 104 102 108 113 116 119 119 121 122 115 106 104 103 103 104 104 103 101 96 94 92 91 92 92 92 91 92 94 97 99 104 115 123 130 139 149 154 164 178 198 246
Height
1447 1444 1445 1446 1449 1453 1457 1463 1470 1466 1465 1459 1457 1458 1458 1459 1460 1461 1462 1463 1464 1466 1467 1468 1470 1472 1474 1476 1479 1481 1483 1485 1486 1489 1491 1493 1495 1497 1499 1501 1503 1506 1508 1510
1448 1444 1444 1448 1449 1450 1452 1454 1457 1458 1460 1455 1455 1457 1458 1459 1460 1461 1462 1463 1464 1465 1467 1468 1469 1471 1473 1475 1477 1479 1481 1483 1485 1487 1489 1491 1493 1495 1497 1499 1502 1504 1506 1508
1457 1450 1448 1458 1451 1451 1451 1451 1453 1458 1456 1454 1456 1457 1458 1460 1461 1461 1463 1464 1465 1466 1467 1468 1469 1470 1472 1474 1476 1478 1480 1482 1484 1486 1488 1489 1491 1493 1496 1498 1500 1502 1504 1506
1460 1456 1466 1457 1446 1446 1450 1451 1451 1452 1453 1454 1456 1457 1459 1460 1461 1462 1463 1463 1464 1465 1466 1467 1468 1470 1472 1474 1475 1477 1479 1481 1483 1485 1486 1489 1491 1492 1495 1497 1499 1501 1503 1504
1464 1465 1461 1452 1447 1447 1450 1453 1450 1451 1453 1455 1456 1458 1460 1461 1461 1463 1463 1464 1464 1465 1465 1466 1468 1469 1471 1473 1475 1476 1478 1480 1482 1484 1486 1488 1490 1491 1494 1496 1498 1499 1501 1503
1461 1464 1467 1453 1444 1444 1448 1456 1450 1450 1453 1455 1456 1461 1462 1461 1461 1462 1463 1464 1464 1465 1465 1466 1467 1469 1471 1473 1475 1476 1478 1479 1481 1484 1485 1487 1489 1491 1494 1495 1497 1499 1501 1502
1458 1459 1455 1445 1443 1444 1458 1454 1448 1449 1451 1454 1456 1458 1460 1461 1461 1463 1463 1464 1464 1465 1465 1466 1468 1470 1471 1473 1475 1476 1478 1480 1482 1484 1485 1488 1490 1492 1494 1496 1498 1499 1500 1502
1458 1460 1458 1443 1443 1446 1448 1445 1446 1448 1451 1454 1456 1457 1459 1460 1462 1463 1463 1464 1464 1465 1466 1467 1469 1471 1472 1474 1476 1478 1479 1480 1482 1484 1487 1489 1491 1493 1495 1497 1498 1499 1500 1502
1450 1451 1445 1443 1443 1444 1444 1444 1446 1448 1451 1453 1455 1457 1459 1461 1462 1463 1464 1464 1465 1466 1468 1469 1471 1473 1474 1476 1478 1479 1481 1482 1484 1486 1488 1491 1492 1494 1496 1498 1499 1500 1502 1503
1445 1444 1443 1443 1443 1443 1444 1444 1446 1448 1450 1453 1454 1457 1459 1461 1463 1464 1465 1466 1467 1468 1469 1471 1473 1475 1477 1478 1480 1481 1483 1485 1487 1489 1491 1492 1494 1496 1498 1499 1501 1502 1503 1504
1444 1443 1443 1443 1443 1443 1444 1445 1446 1449 1451 1453 1454 1457 1460 1462 1464 1465 1467 1468 1469 1471 1472 1474 1475 1477 1479 1481 1483 1484 1486 1488 1489 1491 1493 1495 1496 1499 1500 1502 1503 1505 1505 1506
1442 1440 1442 1443 1444 1444 1444 1446 1447 1449 1451 1454 1456 1458 1461 1463 1466 1468 1469 1471 1472 1474 1475 1477 1478 1480 1482 1484 1486 1487 1489 1491 1492 1494 1496 1498 1499 1501 1503 1505 1506 1507 1508 1509
1438 1439 1441 1442 1444 1445 1446 1447 1449 1450 1452 1455 1457 1460 1462 1465 1468 1470 1472 1474 1475 1477 1479 1480 1482 1484 1486 1488 1489 1491 1492 1494 1495 1497 1499 1501 1503 1504 1505 1508 1509 1510 1511 1511
1437 1439 1442 1443 1445 1447 1448 1450 1451 1454 1456 1458 1460 1463 1466 1468 1471 1473 1475 1477 1479 1481 1482 1484 1486 1487 1489 1491 1493 1494 1496 1498 1499 1501 1503 1505 1506 1508 1509 1510 1511 1512 1513 1513
1438 1439 1441 1444 1447 1449 1451 1453 1454 1457 1459 1462 1464 1467 1470 1472 1474 1477 1479 1482 1483 1485 1486 1488 1489 1491 1493 1495 1497 1498 1500 1501 1503 1504 1506 1508 1509 1510 1512 1513 1514 1514 1515 1515
1438 1441 1443 1445 1448 1451 1454 1456 1457 1461 1463 1466 1469 1472 1474 1476 1479 1481 1484 1486 1487 1489 1491 1492 1494 1495 1497 1498 1500 1502 1504 1505 1506 1508 1509 1511 1512 1513 1514 1515 1516 1517 1517 1517
1438 1442 1444 1447 1451 1454 1457 1459 1461 1464 1467 1470 1474 1476 1479 1482 1484 1486 1489 1491 1492 1493 1495 1497 1498 1500 1501 1502 1504 1505 1506 1508 1510 1511 1512 1513 1514 1515 1516 1517 1518 1518 1519 1519
1439 1442 1445 1448 1452 1456 1460 1463 1466 1469 1472 1475 1478 1481 1484 1486 1488 1491 1493 1495 1496 1497 1499 1501 1502 1503 1505 1506 1507 1508 1509 1510 1512 1513 1515 1516 1517 1518 1519 1519 1520 1520 1520 1521
1442 1445 1449 1452 1456 1459 1463 1466 1469 1473 1476 1480 1482 1485 1488 1491 1493 1495 1497 1499 1500 1501 1503 1504 1506 1507 1508 1509 1510 1511 1512 1513 1515 1516 1517 1518 1519 1520 1520 1521 1521 1521 1522 1521
1445 1448 1452 1456 1460 1463 1467 1470 1473 1477 1480 1483 1486 1489 1492 1495 1497 1499 1501 1502 1503 1505 1507 1508 1509 1510 1511 1512 1513 1514 1515 1516 1517 1518 1519 1520 1521 1521 1522 1522 1522 1522 1522 1522
1448 1451 1455 1459 1464 1468 1471 1474 1477 1480 1484 1487 1490 1493 1495 1498 1501 1502 1504 1505 1507 1509 1510 1512 1513 1514 1515 1515 1516 1517 1517 1518 1519 1520 1520 1521 1522 1522 1522 1523 1523 1523 1523 1523
1451 1455 1459 1463 1467 1471 1474 1478 1481 1484 1487 1491 1494 1496 1499 1502 1504 1506 1508 1509 1511 1512 1513 1514 1515 1516 1517 1518 1518 1519 1519 1520 1521 1521 1522 1522 1523 1523 1524 1524 1524 1524 1523 1523
1455 1459 1462 1466 1470 1474 1478 1481 1485 1488 1491 1494 1497 1500 1502 1505 1507 1509 1510 1513 1514 1515 1516 1517 1518 1518 1519 1520 1520 1521 1521 1522 1522 1523 1523 1524 1524 1524 1524 1524 1524 1524 1524 1523
1458 1462 1466 1470 1474 1477 1481 1485 1488 1491 1495 1498 1501 1504 1506 1508 1510 1512 1513 1515 1517 1518 1518 1519 1520 1520 1521 1521 1522 1522 1523 1524 1524 1524 1525 1525 1525 1525 1525 1525 1525 1524 1524 1523
1462 1466 1469 1473 1477 1481 1484 1488 1491 1495 1498 1501 1504 1507 1509 1511 1512 1514 1516 1517 1519 1520 1520 1521 1522 1522 1523 1523 1524 1524 1525 1525 1525 1526 1526 1526 1526 1526 1526 1525 1525 1525 1524 1523
1466 1470 1474 1477 1481 1484 1488 1491 1494 1498 1501 1503 1506 1509 1511 1513 1515 1517 1518 1519 1521 1522 1522 1523 1524 1524 1524 1525 1525 1526 1526 1526 1527 1527 1527 1527 1527 1526 1526 1526 1525 1525 1524 1523
1470 1474 1477 1481 1485 1488 1492 1495 1498 1501 1504 1506 1508 1511 1513 1515 1517 1519 1520 1521 1522 1523 1524 1525 1525 1526 1526 1526 1527 1527 1527 1528 1528 1528 1527 1527 1527 1527 1526 1526 1525 1525 1524 1523